Wind_Speed
28 26 20 16 19 19 19 17 20 20 19 15 13 11 12 17 18 14 16 16 14 14 7 6 7 8 7 3 17 27 32 32 31 28 26 28 28 27 24 24 24 23 23 23
28 27 21 20 21 22 23 21 19 21 21 18 15 13 18 18 16 14 16 16 17 16 11 2 7 6 7 2 9 18 27 31 32 30 28 29 28 28 26 24 23 22 23 22
29 29 26 25 23 24 26 25 21 26 24 21 18 18 19 23 24 15 17 16 18 19 17 8 1 4 2 3 7 14 18 21 26 29 29 28 27 27 26 25 24 23 23 25
32 32 31 26 26 28 29 28 25 30 27 22 22 21 24 23 23 21 16 17 19 20 21 18 9 4 0 5 7 10 15 18 19 22 27 27 27 24 23 21 19 17 16 18
36 32 34 30 31 29 32 28 28 28 28 27 25 27 26 25 22 21 20 19 22 23 21 24 18 10 4 3 9 11 12 14 17 19 22 24 23 18 16 12 12 13 14 15
36 36 34 32 31 31 31 29 27 26 29 31 29 30 30 27 21 20 18 17 17 16 21 24 27 17 13 7 8 10 12 15 15 15 16 18 20 19 13 11 7 8 3 5
36 38 35 33 31 29 28 25 25 28 30 32 33 34 33 27 24 22 21 19 17 16 20 22 31 29 20 16 11 8 7 11 16 16 17 19 20 17 10 6 8 6 8 11
35 35 35 30 27 25 26 25 29 28 28 28 31 41 37 28 28 27 24 20 17 17 18 19 28 32 28 25 20 13 10 8 12 19 19 19 19 16 12 9 17 17 17 13
30 31 27 27 24 25 25 27 26 26 28 29 41 38 41 31 31 30 26 22 18 17 19 19 26 28 31 29 27 25 16 13 13 14 20 25 24 20 20 17 22 13 17 13
25 27 25 24 26 28 29 27 27 27 28 30 34 36 35 34 34 32 28 23 21 19 18 19 21 26 30 31 32 28 21 16 14 10 15 22 25 26 25 19 19 16 15 12
22 25 25 28 33 35 33 31 28 28 28 31 30 36 26 34 35 33 30 27 24 22 21 21 20 19 25 30 33 31 28 24 20 16 12 11 15 19 19 19 23 21 16 11
23 26 29 33 35 35 33 31 28 28 30 31 31 25 24 27 29 29 25 23 20 20 21 20 21 24 24 28 31 32 32 31 28 23 16 13 12 13 11 13 20 23 20 12
16 16 19 24 29 31 33 31 28 28 29 27 30 19 22 24 25 24 22 20 19 20 19 19 23 27 29 27 29 32 29 29 31 33 23 19 17 19 18 16 20 25 24 20
10 8 5 5 14 20 25 26 26 24 24 25 26 18 23 23 24 22 20 17 17 18 15 17 21 26 30 31 32 34 34 31 34 37 30 28 26 26 29 23 20 30 26 29
5 1 5 3 3 9 15 16 16 18 18 20 20 17 22 20 18 17 15 13 14 16 14 14 16 19 23 30 34 37 37 37 38 41 39 36 38 35 34 34 24 25 32 33
4 4 6 8 9 10 11 12 13 14 14 15 17 16 16 16 14 14 12 12 14 16 15 15 13 13 17 22 28 34 40 42 45 47 45 43 43 42 37 38 35 28 28 37
6 6 7 7 7 9 9 10 12 13 14 14 10 17 19 17 16 16 16 15 14 16 17 17 17 16 17 18 20 26 32 41 49 48 48 44 43 41 41 39 33 31 29 27
11 10 8 6 5 5 8 9 10 11 11 11 10 19 33 20 19 20 21 21 22 22 22 23 23 23 22 21 22 22 25 32 39 34 31 31 40 44 47 45 36 28 29 26
12 9 9 8 7 5 5 7 8 9 12 14 13 21 20 19 20 21 23 23 24 25 27 28 28 29 29 28 27 28 29 29 29 41 42 46 44 43 50 48 43 34 29 25
15 12 10 8 7 5 8 9 9 11 8 10 12 13 13 15 14 16 14 16 18 18 21 25 26 31 33 34 33 33 35 34 33 40 42 48 40 41 44 50 46 32 28 30
18 16 15 13 13 8 9 11 12 13 10 12 13 14 15 16 16 16 16 18 18 17 17 19 21 23 26 30 33 34 35 38 38 40 43 40 44 38 39 40 32 26 25 16
15 13 12 13 14 11 11 10 13 16 15 15 17 19 20 22 22 20 20 21 21 19 18 17 16 18 21 21 24 30 35 38 40 41 42 44 43 39 34 34 34 30 11 37
14 14 10 10 10 14 13 13 14 15 18 20 22 23 24 24 24 24 23 22 21 22 23 22 21 20 21 22 21 22 28 35 40 43 42 39 40 41 44 41 46 45 42 49
17 16 15 13 10 15 16 16 16 17 19 22 23 25 27 26 26 26 27 28 27 25 26 28 26 25 24 25 27 26 25 26 32 39 46 42 42 40 40 47 56 57 50 50
21 18 19 18 16 16 18 20 20 20 21 24 26 25 26 28 29 29 29 31 32 32 31 31 31 31 31 29 29 29 29 29 29 32 38 45 49 44 42 42 57 63 60 56
23 21 24 19 24 20 22 22 22 22 20 19 20 22 25 30 32 34 35 35 36 38 38 36 36 35 35 37 38 36 35 31 35 34 32 42 51 47 46 40 45 48 49 45
Wind_Direction
278 275 275 268 272 275 277 280 287 285 286 285 270 253 239 243 252 262 262 247 252 270 292 357 32 1 333 237 196 197 202 203 205 207 210 214 219 221 224 231 241 249 248 248
269 269 272 267 265 270 276 277 278 278 279 279 272 254 239 246 250 239 235 249 238 248 255 297 48 32 349 286 189 200 206 209 209 209 212 218 224 229 235 241 253 258 255 258
265 267 264 262 265 267 271 275 274 273 270 274 272 264 249 233 251 238 234 251 239 235 245 214 82 49 2 264 186 197 208 215 220 219 219 223 230 236 243 253 256 256 260 260
262 262 262 263 262 265 268 273 269 263 265 268 267 262 256 247 237 246 235 241 239 232 227 230 221 221 79 216 196 188 200 209 213 220 222 225 231 235 241 247 250 250 250 253
258 262 262 263 263 267 269 272 262 264 264 260 260 261 260 257 257 248 248 240 238 241 243 235 222 214 219 225 196 184 193 204 209 212 216 217 221 223 219 215 235 260 271 279
260 261 263 265 269 268 268 263 263 260 255 253 255 256 258 259 259 260 256 254 253 239 241 234 225 210 214 191 176 176 188 195 200 202 201 203 201 195 196 221 285 297 286 300
258 261 266 266 264 261 260 261 259 255 251 247 250 254 256 257 258 257 258 256 250 243 232 225 221 220 218 195 193 179 190 218 208 200 201 204 202 201 204 234 213 221 248 242
257 258 258 259 256 254 255 252 250 251 251 248 261 250 256 253 257 256 255 255 248 235 237 223 220 223 219 211 207 209 243 249 226 213 206 206 204 216 225 213 194 228 249 251
253 252 253 249 245 245 248 248 250 251 248 239 234 248 252 251 254 258 257 256 257 250 241 229 219 219 221 219 217 223 226 229 226 230 223 217 219 219 210 227 218 229 249 242
246 250 243 242 242 247 247 249 244 244 246 247 247 247 251 253 253 255 259 263 264 256 245 238 223 226 226 229 229 228 221 225 203 201 217 216 218 211 221 199 191 223 243 249
248 251 244 249 247 249 247 242 242 240 241 246 249 251 255 257 261 263 269 272 272 266 256 243 238 227 224 226 227 228 221 222 209 175 185 186 203 217 236 220 217 219 242 251
251 254 251 247 246 246 240 235 234 235 239 243 252 254 254 258 262 267 269 270 270 264 255 247 238 230 223 226 224 228 229 231 222 209 203 205 208 221 224 254 235 239 232 247
266 265 262 250 243 234 225 225 229 233 239 245 251 263 259 259 260 265 270 273 270 262 259 250 237 231 227 221 226 228 224 224 223 218 213 215 228 230 223 232 244 224 227 242
282 291 274 249 234 215 209 216 226 232 238 248 258 263 266 267 268 270 269 264 258 253 243 238 239 232 230 223 221 223 217 220 220 220 220 236 244 242 240 242 241 230 240 248
248 276 112 139 182 198 207 220 225 232 240 251 264 256 259 264 267 263 257 249 243 242 238 237 238 239 236 232 225 222 219 220 223 223 229 241 247 254 246 247 250 234 239 246
203 190 167 171 179 193 205 215 220 228 235 238 249 258 259 263 264 256 242 229 226 232 237 238 232 234 241 237 232 228 223 224 226 226 228 235 243 246 242 251 257 252 237 245
211 196 189 187 198 215 223 228 224 224 233 246 269 299 274 257 254 256 256 254 245 243 247 253 247 234 232 242 235 233 232 227 230 230 232 240 243 238 241 253 249 242 244 251
194 196 204 222 224 222 223 245 246 250 252 246 149 237 264 261 256 251 254 253 255 253 252 253 252 248 242 238 240 240 233 234 233 225 247 264 252 248 250 247 248 239 241 249
214 212 209 210 214 224 239 248 250 244 242 247 231 226 240 246 251 257 259 259 259 259 258 254 254 254 251 244 240 237 240 239 230 217 226 226 237 246 251 259 249 238 238 235
220 237 255 264 261 260 259 257 243 234 225 226 236 245 253 261 270 267 275 275 275 272 265 261 254 253 252 250 247 243 241 237 236 233 239 232 232 254 252 245 241 240 228 212
217 233 248 255 261 262 277 274 255 248 242 245 248 257 267 272 274 276 278 280 284 286 289 282 274 265 257 254 252 250 247 247 239 235 241 244 251 247 244 235 228 214 210 233
218 224 227 240 255 266 270 280 279 270 264 258 261 268 272 276 280 285 287 286 290 294 291 286 282 280 283 279 266 251 247 245 245 243 237 243 251 244 229 222 208 180 255 255
238 250 260 261 267 272 276 276 271 265 263 262 264 269 270 274 279 284 288 292 292 290 290 291 290 285 287 290 287 276 261 250 245 244 243 244 236 231 222 222 198 198 215 220
247 257 263 268 261 272 278 278 275 271 268 269 265 264 269 275 279 283 284 290 293 296 293 293 293 292 289 286 289 290 289 279 267 251 241 235 227 228 228 222 204 201 216 228
248 258 267 267 270 263 270 272 277 277 276 272 272 273 275 278 280 279 280 284 289 291 291 290 287 287 289 288 288 292 294 290 289 273 252 238 226 233 236 226 215 214 224 235
250 255 261 267 268 275 274 282 283 281 282 282 279 276 273 275 279 282 283 286 289 289 288 287 285 285 283 283 285 287 292 296 299 297 281 245 235 231 231 219 223 226 230 244
Height
10956 10957 10960 10961 10960 10960 10962 10964 10986 10963 10961 10959 10960 10959 10960 10961 10961 10961 10961 10962 10961 10961 10961 10958 10955 10953 10953 10952 10953 10957 10961 10966 10970 10973 10978 10981 10984 10987 10990 10991 10993 10994 10995 10993
10951 10951 10955 10955 10955 10955 10956 10957 10959 10957 10956 10955 10955 10955 10956 10957 10957 10958 10959 10959 10959 10959 10960 10959 10956 10954 10954 10954 10954 10958 10961 10964 10968 10971 10975 10979 10983 10986 10989 10991 10992 10993 10993 10993
10946 10946 10948 10949 10950 10950 10949 10951 10954 10952 10951 10951 10951 10950 10951 10953 10953 10956 10956 10956 10957 10957 10958 10958 10957 10956 10956 10955 10955 10957 10961 10965 10968 10971 10974 10978 10982 10985 10988 10989 10988 10988 10988 10989
10939 10939 10941 10944 10944 10944 10944 10945 10946 10945 10945 10947 10946 10945 10945 10946 10948 10951 10953 10953 10953 10954 10955 10956 10957 10956 10956 10956 10955 10957 10959 10962 10965 10968 10971 10974 10977 10980 10982 10984 10984 10983 10983 10983
10929 10933 10933 10937 10937 10939 10937 10939 10938 10939 10940 10941 10941 10939 10940 10942 10944 10947 10948 10950 10950 10950 10951 10953 10955 10956 10955 10956 10957 10957 10958 10960 10961 10963 10966 10969 10972 10976 10979 10980 10980 10981 10981 10981
10923 10923 10926 10928 10930 10931 10930 10931 10932 10933 10933 10934 10935 10933 10934 10936 10940 10942 10943 10945 10944 10946 10946 10948 10951 10954 10955 10956 10957 10957 10957 10957 10958 10961 10965 10968 10971 10973 10974 10976 10978 10979 10979 10979
10915 10915 10918 10920 10921 10923 10923 10925 10926 10925 10927 10928 10929 10928 10928 10933 10935 10937 10938 10939 10940 10941 10942 10943 10946 10949 10952 10954 10956 10956 10955 10956 10957 10959 10962 10965 10968 10970 10972 10975 10976 10978 10976 10973
10905 10907 10908 10912 10913 10916 10916 10918 10917 10918 10921 10924 10926 10920 10923 10929 10928 10930 10932 10934 10935 10937 10938 10940 10941 10944 10948 10951 10952 10952 10954 10955 10956 10956 10958 10962 10965 10968 10969 10972 10975 10974 10971 10971
10896 10897 10902 10904 10907 10908 10910 10911 10912 10914 10914 10916 10915 10915 10915 10923 10924 10924 10926 10929 10931 10933 10933 10935 10937 10939 10942 10946 10947 10948 10950 10951 10952 10955 10955 10957 10960 10964 10965 10968 10969 10969 10970 10971
10890 10891 10895 10898 10900 10901 10902 10905 10906 10907 10908 10908 10907 10909 10911 10916 10917 10918 10921 10925 10927 10927 10929 10931 10933 10936 10939 10942 10944 10944 10946 10948 10950 10951 10952 10953 10955 10958 10961 10964 10964 10966 10967 10967
10884 10886 10889 10891 10892 10894 10896 10897 10900 10902 10903 10902 10903 10901 10911 10909 10910 10912 10916 10919 10920 10922 10923 10924 10927 10930 10932 10933 10936 10939 10941 10944 10947 10949 10950 10952 10954 10956 10958 10960 10960 10962 10963 10964
10879 10879 10880 10881 10882 10885 10889 10891 10894 10896 10897 10897 10897 10901 10904 10904 10905 10907 10911 10912 10913 10914 10915 10918 10920 10922 10923 10925 10930 10934 10937 10940 10943 10947 10947 10949 10951 10953 10954 10956 10956 10957 10959 10960
10872 10872 10870 10869 10871 10875 10880 10884 10889 10891 10892 10894 10893 10898 10900 10899 10901 10903 10905 10906 10907 10907 10909 10911 10912 10912 10915 10920 10924 10927 10930 10934 10939 10943 10943 10945 10947 10947 10949 10951 10951 10952 10954 10955
10868 10867 10865 10865 10867 10871 10876 10881 10885 10888 10890 10891 10891 10896 10895 10896 10897 10899 10900 10902 10901 10902 10904 10904 10904 10906 10908 10913 10915 10918 10924 10929 10932 10936 10940 10939 10941 10942 10943 10944 10947 10949 10950 10952
10867 10867 10866 10868 10870 10873 10877 10880 10884 10886 10888 10889 10891 10892 10890 10891 10893 10894 10895 10896 10897 10898 10899 10898 10899 10901 10903 10905 10907 10911 10918 10921 10924 10928 10932 10933 10932 10934 10937 10937 10940 10942 10944 10944
10867 10867 10868 10869 10871 10874 10876 10879 10881 10883 10885 10887 10888 10889 10888 10888 10888 10889 10891 10892 10893 10894 10894 10893 10895 10897 10897 10898 10901 10905 10909 10913 10913 10914 10916 10919 10922 10925 10927 10929 10931 10935 10937 10939
10865 10866 10867 10869 10871 10873 10875 10877 10879 10881 10883 10884 10891 10895 10889 10886 10885 10885 10886 10886 10887 10888 10888 10889 10891 10893 10894 10894 10896 10899 10901 10901 10901 10906 10908 10913 10915 10917 10921 10922 10922 10924 10928 10931
10863 10865 10866 10868 10870 10872 10874 10875 10876 10877 10878 10882 10892 10904 10892 10881 10879 10880 10880 10881 10881 10882 10882 10882 10884 10886 10888 10890 10892 10892 10891 10892 10893 10900 10905 10908 10909 10905 10908 10913 10916 10916 10918 10922
10862 10864 10866 10868 10869 10871 10873 10874 10874 10875 10875 10876 10879 10882 10876 10873 10872 10873 10874 10874 10875 10875 10875 10876 10877 10879 10880 10883 10885 10886 10885 10885 10887 10889 10886 10887 10893 10896 10899 10904 10910 10909 10912 10914
10859 10861 10863 10865 10868 10870 10872 10871 10871 10871 10871 10871 10870 10870 10869 10868 10869 10869 10870 10869 10868 10869 10869 10868 10870 10870 10871 10873 10876 10878 10877 10878 10880 10880 10880 10881 10884 10887 10888 10895 10900 10904 10910 10912
10857 10858 10860 10863 10864 10867 10870 10869 10868 10868 10869 10867 10867 10866 10866 10865 10865 10865 10864 10864 10864 10865 10864 10863 10863 10864 10864 10865 10866 10869 10870 10868 10869 10872 10872 10873 10875 10878 10881 10889 10895 10902 10909 10912
10853 10855 10858 10859 10860 10861 10863 10864 10864 10865 10865 10865 10864 10862 10861 10859 10859 10859 10859 10858 10859 10859 10858 10858 10858 10857 10856 10856 10857 10858 10859 10859 10858 10860 10865 10866 10865 10870 10875 10881 10888 10897 10902 10914
10847 10850 10853 10854 10858 10857 10858 10859 10859 10860 10859 10859 10859 10857 10855 10854 10854 10853 10853 10852 10852 10852 10851 10851 10851 10850 10849 10848 10848 10848 10848 10849 10851 10852 10852 10854 10856 10859 10864 10871 10880 10879 10879 10868
10843 10845 10848 10851 10853 10852 10854 10854 10854 10854 10853 10852 10851 10850 10849 10849 10849 10849 10848 10846 10846 10846 10845 10843 10842 10841 10841 10840 10839 10839 10839 10840 10839 10839 10841 10843 10845 10848 10853 10860 10868 10869 10868 10868
10838 10841 10842 10844 10847 10848 10848 10848 10848 10848 10847 10846 10846 10845 10845 10844 10843 10843 10842 10841 10839 10838 10838 10836 10835 10833 10831 10831 10831 10830 10831 10829 10827 10827 10829 10832 10834 10838 10842 10847 10855 10858 10861 10861
10833 10835 10835 10839 10839 10842 10842 10842 10842 10842 10842 10842 10841 10840 10839 10837 10836 10835 10835 10835 10833 10830 10829 10828 10826 10825 10824 10821 10820 10820 10820 10819 10818 10816 10816 10816 10819 10824 10829 10834 10840 10843 10845 10845